Dewpoint
11 11 10 9 8 7 7 6 5 4 4 5 5 2 2 1 -0 -0 -1 -2 -2 0 0 -2 2 4 3 2 3 2 2 4 4 3 4 4 4 2 -3 -7 -4 -1 1 1 1 -0 -5 -3 2 3 3 4
11 10 10 10 8 8 7 6 6 4 4 5 4 3 2 1 1 0 -0 -1 -2 -2 -3 -3 0 3 4 3 1 1 1 2 1 -1 -0 -1 -1 -4 -9 -9 -4 -0 2 2 1 -0 -6 -6 1 3 3 3
11 10 10 10 9 7 7 6 5 4 4 4 3 3 2 2 1 1 1 -0 -1 -1 -2 -3 -3 -0 2 2 1 1 -1 -3 -4 -7 -6 -7 -9 -12 -15 -13 -7 -2 1 2 1 -0 -6 -10 -1 2 2 1
10 10 10 10 9 8 7 6 5 4 4 3 3 3 2 2 2 1 1 0 -0 -0 -1 -1 -2 -1 1 1 -1 -0 -2 -5 -7 -10 -11 -12 -14 -17 -15 -15 -11 -6 -3 -1 -1 -2 -7 -13 -2 2 2 1
10 10 10 10 9 8 6 5 5 5 5 3 2 3 2 2 1 1 -0 -0 0 -0 -0 -1 -1 -1 0 0 -1 -2 -3 -4 -5 -9 -12 -14 -16 -16 -14 -16 -15 -12 -10 -7 -7 -5 -8 -14 -4 1 1 1
10 10 10 10 9 7 6 6 6 6 5 3 2 2 3 2 1 1 -0 -0 -0 -1 -1 -1 -1 -1 -1 -1 -1 -2 -3 -3 -4 -7 -10 -14 -16 -16 -16 -17 -17 -16 -16 -14 -13 -8 -10 -14 -5 0 0 1
10 10 10 10 9 7 7 7 6 6 5 2 2 3 3 3 1 1 1 0 0 -0 -1 -2 -1 -1 -2 -2 -3 -3 -4 -4 -4 -6 -9 -12 -14 -15 -16 -17 -17 -16 -17 -17 -17 -13 -13 -16 -8 -2 -2 -0
10 10 10 9 9 8 8 7 7 7 5 3 3 4 4 3 3 3 2 1 1 0 -0 -1 -1 -1 -1 -2 -3 -3 -4 -4 -4 -6 -7 -10 -11 -13 -15 -16 -16 -15 -15 -16 -17 -16 -16 -17 -13 -8 -6 -4
10 10 10 9 9 9 8 8 7 7 5 4 5 4 4 4 4 3 2 1 1 0 -1 -1 -1 -1 -1 -1 -2 -2 -3 -3 -4 -4 -5 -8 -10 -11 -13 -14 -15 -15 -15 -15 -16 -17 -17 -17 -15 -13 -10 -8
9 10 10 9 9 8 8 8 8 7 6 5 5 4 4 4 4 3 2 2 1 -0 -1 -1 -1 -2 -1 -1 -1 -1 -1 -2 -3 -3 -4 -7 -9 -11 -12 -13 -13 -14 -15 -16 -16 -16 -18 -17 -15 -14 -11 -9
9 9 10 9 8 8 8 8 8 7 6 6 5 5 4 4 4 3 3 2 1 -1 -1 -1 -1 -2 -2 -1 -1 -1 -1 -1 -2 -3 -5 -7 -9 -11 -12 -12 -12 -12 -12 -12 -13 -14 -16 -15 -14 -15 -14 -10
9 9 9 9 8 8 8 8 8 7 6 6 6 5 5 4 4 3 3 2 1 -0 -1 -1 -2 -2 -2 -2 -2 -2 -2 -2 -3 -4 -6 -8 -10 -11 -12 -13 -12 -12 -11 -11 -11 -12 -13 -13 -13 -14 -15 -12
8 9 9 9 8 8 8 8 8 7 7 6 6 6 5 4 4 4 4 3 2 1 1 1 0 -0 -1 -1 -2 -3 -3 -4 -6 -7 -9 -11 -12 -12 -13 -13 -13 -13 -12 -12 -12 -12 -12 -12 -13 -14 -14 -14
7 8 9 9 9 8 8 8 8 7 7 6 6 6 5 5 4 4 4 3 3 2 2 3 2 2 1 1 -0 -2 -4 -6 -8 -9 -11 -13 -14 -15 -14 -14 -14 -15 -14 -14 -14 -14 -15 -15 -15 -14 -14 -15
5 7 8 8 8 9 8 8 8 7 7 6 5 5 4 4 4 5 5 4 3 3 3 3 3 3 2 2 1 -1 -4 -7 -9 -12 -14 -16 -17 -17 -16 -16 -17 -17 -18 -18 -19 -20 -21 -22 -21 -19 -16 -17
4 4 7 8 8 8 8 8 7 7 7 6 5 4 4 4 4 5 5 4 4 3 3 3 3 3 2 2 1 -1 -5 -8 -10 -13 -15 -17 -18 -18 -18 -19 -20 -22 -24 -25 -27 -29 -29 -32 -29 -29 -25 -22
4 3 5 7 8 8 8 7 7 7 7 6 5 5 4 4 4 5 5 4 4 3 3 3 3 3 3 2 1 -1 -5 -8 -11 -14 -15 -17 -18 -18 -19 -21 -25 -26 -30 -31 -33 -35 -32 -36 -33 -33 -34 -29
4 3 3 4 6 8 8 7 7 7 7 6 6 6 5 5 5 5 5 4 4 3 3 3 3 3 3 2 1 -0 -3 -6 -10 -13 -15 -17 -17 -18 -19 -20 -27 -30 -34 -34 -33 -35 -32 -35 -33 -33 -34 -32
5 4 3 3 3 5 7 8 7 7 7 7 6 6 6 5 5 5 5 5 4 3 3 3 4 3 3 3 2 1 -1 -4 -7 -11 -13 -16 -18 -19 -19 -19 -25 -30 -31 -33 -32 -33 -32 -33 -32 -33 -34 -32
6 5 5 4 3 2 5 7 7 7 7 7 6 6 6 6 5 5 5 5 4 3 3 3 4 3 3 3 2 1 0 -2 -5 -8 -11 -14 -17 -19 -20 -20 -24 -29 -31 -32 -32 -32 -31 -33 -32 -32 -33 -32
7 7 6 5 5 3 2 5 7 7 7 6 6 6 6 6 6 5 4 4 4 3 3 3 4 3 3 3 3 2 1 -1 -3 -6 -9 -12 -15 -18 -21 -20 -22 -27 -31 -31 -30 -31 -30 -31 -31 -31 -34 -31
6 7 6 6 6 5 4 3 5 6 6 6 6 6 5 5 6 5 5 4 3 3 3 3 3 3 3 3 2 2 2 0 -1 -5 -8 -12 -15 -17 -20 -21 -22 -25 -29 -31 -30 -30 -30 -30 -31 -30 -32 -30
6 6 6 6 6 6 6 5 5 6 6 6 5 5 6 5 5 5 4 3 2 2 3 3 3 3 2 2 3 3 2 1 -1 -3 -8 -12 -14 -16 -18 -20 -21 -23 -27 -30 -29 -30 -30 -28 -30 -28 -30 -30
5 5 5 5 5 5 5 5 6 6 6 5 4 4 5 5 5 5 4 4 3 2 2 2 3 3 2 1 1 2 2 1 0 -1 -5 -9 -13 -15 -17 -18 -19 -21 -24 -28 -27 -27 -28 -28 -28 -28 -28 -29
4 4 4 4 4 4 4 4 5 5 5 5 3 3 4 4 5 5 5 4 3 3 2 2 2 2 2 1 1 1 2 2 1 -0 -3 -6 -11 -14 -16 -18 -19 -20 -22 -25 -26 -25 -27 -27 -27 -27 -26 -28
2 2 2 2 3 3 3 4 4 4 4 5 4 4 4 4 5 5 5 4 4 3 3 2 2 2 2 2 1 1 1 0 1 1 -1 -4 -8 -12 -14 -17 -18 -20 -21 -22 -26 -27 -26 -25 -25 -26 -27 -27
0 1 1 1 1 2 2 3 3 3 3 3 4 4 4 4 5 5 4 4 4 3 3 3 2 2 2 3 2 1 -0 -2 -2 -0 -0 -2 -5 -9 -12 -16 -17 -19 -21 -22 -24 -25 -24 -25 -24 -24 -25 -26
-4 -3 -1 -0 0 1 1 2 2 3 3 2 2 3 3 4 4 4 4 4 4 4 3 3 3 2 2 2 2 2 1 -1 -4 -3 -1 -1 -4 -7 -9 -12 -14 -16 -19 -21 -23 -24 -23 -23 -23 -22 -24 -26
-11 -9 -7 -4 -2 -1 0 1 1 2 2 2 1 2 2 2 3 3 3 3 3 3 4 3 3 3 2 2 2 2 2 1 -2 -3 -3 -3 -4 -5 -6 -8 -10 -13 -16 -18 -20 -23 -23 -22 -21 -23 -27 -27
-12 -12 -12 -10 -8 -5 -3 -2 -1 -0 0 0 0 0 1 1 2 2 2 2 3 3 3 3 3 3 3 2 2 2 2 2 1 -0 -1 -3 -4 -6 -6 -7 -10 -11 -12 -15 -17 -20 -22 -22 -23 -26 -27 -27
-14 -12 -11 -11 -11 -9 -7 -5 -4 -3 -2 -1 -1 -1 -0 0 1 1 1 1 1 2 2 2 2 2 2 2 2 2 2 2 1 1 1 0 -2 -5 -7 -8 -9 -10 -9 -11 -14 -16 -18 -20 -22 -24 -25 -26
Wind_Speed
27 28 30 29 25 18 16 15 14 14 14 14 10 9 9 9 9 8 7 6 8 12 12 12 15 15 12 12 12 10 12 15 14 15 14 13 14 14 19 25 24 21 19 19 20 19 16 16 18 16 16 16
27 29 32 30 25 17 16 16 15 14 14 15 11 10 9 9 9 8 8 7 6 6 7 10 13 14 14 13 12 9 10 11 11 12 12 11 11 15 22 24 23 21 19 19 19 18 17 17 18 16 16 16
29 30 29 27 24 19 18 19 19 17 17 16 13 12 10 8 8 8 9 9 8 5 4 6 8 11 13 12 11 10 8 5 4 5 7 9 10 16 22 22 22 22 20 19 18 18 16 17 18 16 15 14
31 29 25 25 24 22 21 20 20 19 19 17 14 13 11 11 11 11 10 10 10 7 6 5 5 7 9 9 8 8 5 2 1 0 2 7 12 18 20 19 21 21 20 19 18 17 15 16 17 16 14 13
28 26 24 26 26 24 22 21 22 22 21 18 15 15 14 14 15 14 14 13 12 9 8 7 6 6 8 9 7 4 3 1 1 1 1 7 13 16 18 18 18 19 19 19 18 16 15 15 17 17 15 13
26 26 27 29 29 25 24 24 25 25 22 18 16 17 18 17 17 17 17 16 14 12 10 9 8 7 7 9 8 5 3 2 2 1 2 7 11 12 15 17 17 17 17 17 18 17 15 15 17 18 15 14
24 27 30 31 30 28 28 28 28 27 24 20 19 19 19 20 19 17 17 16 15 12 10 9 8 7 7 7 7 6 4 3 4 2 1 6 9 11 13 15 15 16 16 17 18 17 17 17 18 18 16 15
24 25 30 31 31 31 31 31 30 29 26 23 22 21 20 20 19 17 17 17 16 13 11 10 9 9 9 8 8 8 6 5 5 4 3 6 9 11 13 15 16 16 17 18 18 19 19 18 19 19 17 16
25 25 29 32 33 34 34 33 32 30 27 25 23 22 21 20 19 18 19 20 19 17 15 14 13 13 12 11 11 10 9 8 7 7 6 8 10 12 14 16 17 17 18 18 18 19 20 19 19 20 19 18
25 26 29 33 37 37 36 34 32 30 28 26 24 22 21 20 19 19 20 21 21 20 19 18 17 17 15 13 13 12 12 11 10 10 10 10 12 13 15 16 17 18 18 18 18 18 19 19 19 20 20 19
26 27 30 34 38 37 35 34 32 32 31 28 25 22 21 20 20 20 21 21 21 21 20 20 20 20 18 17 16 16 16 16 15 14 13 13 14 14 16 17 18 18 18 18 18 18 19 19 19 21 21 21
25 29 32 33 37 38 37 37 35 35 32 28 24 22 21 20 19 19 20 20 20 20 20 20 20 20 20 20 19 20 20 19 18 17 17 17 17 16 17 18 19 19 19 19 19 19 20 21 21 22 23 22
21 28 34 35 37 40 40 39 37 36 32 27 24 22 21 19 19 19 19 20 21 20 19 19 19 19 20 20 21 22 22 21 19 19 19 19 18 18 19 20 21 21 21 21 21 21 22 22 23 24 24 24
18 24 32 36 38 40 41 42 40 37 32 27 25 23 21 20 20 19 19 20 22 22 20 19 19 19 19 19 20 21 22 21 20 20 20 20 19 20 20 21 22 22 22 23 23 23 23 24 24 25 26 25
18 20 27 34 38 41 42 42 39 37 34 30 27 26 25 25 24 23 21 21 23 23 22 21 20 20 20 20 20 21 21 20 20 20 20 20 21 21 21 22 22 22 23 23 23 24 24 25 25 26 27 26
20 17 19 27 34 37 40 43 40 39 37 32 29 29 29 28 28 27 25 24 25 25 24 23 21 21 21 21 20 20 20 19 19 19 19 20 21 22 22 22 22 23 23 23 23 24 24 25 25 26 27 27
22 19 14 18 28 36 38 41 42 41 38 34 32 32 30 30 30 30 28 26 26 27 27 25 23 22 22 21 20 20 20 20 20 20 20 21 22 22 23 23 23 24 24 23 23 24 24 24 25 25 26 27
20 20 16 13 21 33 39 40 43 41 37 35 36 36 34 33 33 32 29 28 28 29 29 27 25 24 24 22 20 21 21 20 21 21 21 21 22 23 23 23 23 24 24 24 24 24 24 24 24 25 26 27
21 20 17 13 14 23 35 42 43 40 38 39 41 40 37 36 35 33 30 29 29 31 31 29 27 26 25 24 22 21 21 21 21 21 21 21 22 22 23 23 23 23 23 23 23 24 24 24 24 24 25 26
20 21 18 15 13 15 23 36 42 41 41 43 44 42 40 38 37 35 33 32 32 33 32 31 29 27 26 26 24 22 22 22 22 22 22 21 22 22 23 24 23 23 23 22 23 23 23 23 24 24 25 26
16 18 18 18 15 13 16 25 36 41 42 43 44 43 41 41 40 38 35 36 36 35 34 33 31 29 28 28 26 24 23 23 22 22 22 23 23 23 24 24 25 25 24 23 23 23 23 23 24 24 25 25
10 15 18 18 18 18 16 18 26 36 41 41 41 42 42 42 42 41 40 39 38 36 35 35 33 31 30 30 29 26 25 24 23 23 23 24 24 24 25 25 26 26 25 24 23 23 23 24 24 24 24 24
3 9 13 14 15 19 21 20 22 29 33 33 34 38 41 42 42 43 42 42 40 36 37 38 36 34 33 33 31 29 27 26 25 25 25 25 24 24 25 25 25 25 25 24 23 23 24 24 24 24 24 24
3 2 4 6 8 10 15 20 23 26 25 23 25 29 34 38 40 42 43 43 41 39 41 41 38 37 36 35 34 32 31 29 28 27 26 26 25 25 25 25 25 25 25 24 23 23 23 23 23 24 25 25
9 8 6 5 5 6 8 13 18 23 23 19 19 22 25 31 36 42 45 44 44 43 43 42 40 39 38 37 37 35 34 31 29 28 27 26 26 26 26 27 27 27 26 26 25 25 24 24 25 25 26 27
13 14 14 12 12 12 11 9 10 14 18 20 21 22 23 26 31 39 45 45 45 45 44 44 43 42 40 39 40 38 36 34 32 30 29 29 29 28 28 28 29 29 29 29 29 29 27 25 25 26 27 28
15 16 17 16 15 14 13 11 9 8 10 13 18 22 24 25 28 35 43 44 44 45 45 46 45 44 42 42 42 40 39 39 37 34 33 32 31 30 30 29 29 31 31 31 30 28 26 26 25 25 27 30
16 17 17 18 17 16 13 10 10 8 6 6 9 15 20 24 28 32 37 39 40 42 45 47 46 46 45 44 44 42 41 41 41 39 36 34 33 33 33 32 31 31 32 33 32 28 25 23 21 23 28 32
21 19 17 18 19 20 18 15 15 14 11 8 7 9 14 19 24 29 32 35 37 41 44 47 47 47 47 46 46 45 43 43 42 41 39 37 36 36 35 34 33 33 33 34 34 32 27 20 20 26 30 30
25 24 23 22 19 17 19 20 20 19 16 14 12 10 11 15 18 22 26 31 34 38 41 45 46 47 48 48 47 47 45 44 43 42 41 40 39 38 37 35 35 35 35 35 35 35 33 26 25 29 29 27
24 24 24 25 24 21 19 20 21 20 20 19 17 15 13 14 15 16 19 23 28 32 37 41 44 46 47 48 48 48 47 46 45 44 43 43 42 40 39 37 38 37 35 36 37 36 36 34 31 28 27 29
Wind_Direction
203 195 191 185 178 179 184 185 190 189 185 187 180 161 148 135 135 143 145 142 135 135 141 143 144 150 155 149 140 141 139 140 159 166 157 160 166 168 160 153 152 155 160 164 164 164 162 161 159 155 156 154
208 202 200 195 189 191 200 205 208 201 188 185 187 175 159 150 146 148 152 157 155 136 128 130 139 145 143 145 143 142 144 145 166 176 172 176 177 167 159 156 155 156 164 169 169 170 165 163 162 159 159 159
207 206 207 203 200 207 213 215 211 201 187 185 190 182 172 174 173 172 169 172 185 182 157 144 140 144 143 144 145 143 145 154 170 174 183 190 173 161 162 163 161 162 169 174 175 175 168 164 166 164 162 162
202 206 213 209 210 217 214 208 202 194 187 188 190 189 189 196 194 187 182 179 187 193 192 190 169 159 154 151 153 151 149 166 196 62 171 178 164 159 165 170 169 169 174 179 180 180 175 168 168 168 162 160
209 210 216 213 214 214 206 199 198 194 191 194 197 199 200 201 199 195 196 191 187 191 194 198 196 188 169 164 170 173 172 197 217 22 83 167 167 165 171 177 177 177 180 184 184 184 183 174 171 171 162 158
223 219 216 212 208 205 199 195 198 198 195 199 201 203 204 205 204 202 202 194 187 188 187 186 187 193 186 176 181 187 190 239 278 19 112 171 176 178 181 183 184 186 188 192 190 188 187 178 173 174 166 159
233 223 211 206 201 197 198 198 201 200 198 200 201 204 207 205 205 205 201 193 191 193 193 192 188 199 208 196 201 212 205 233 277 318 169 180 184 191 193 192 193 194 198 200 197 194 193 185 179 182 178 168
233 222 212 210 205 200 201 202 201 199 198 200 201 202 203 202 202 200 194 190 192 196 201 207 212 219 221 217 223 229 223 233 257 267 238 204 199 202 202 201 202 203 205 205 201 199 198 193 188 191 192 185
238 230 223 217 210 207 205 203 200 197 199 200 200 200 200 200 198 195 191 191 193 194 198 207 220 227 228 229 231 233 237 244 244 246 246 228 217 213 210 208 207 206 206 206 206 203 200 198 195 196 198 196
250 240 234 222 209 205 202 200 200 200 202 201 199 200 200 199 196 194 194 196 198 196 196 204 216 224 228 231 235 239 243 247 243 242 242 233 228 224 220 217 212 209 208 209 212 209 205 205 204 202 202 202
257 247 242 230 211 205 203 201 203 205 203 200 200 202 202 202 199 197 198 201 205 204 203 206 212 219 223 228 232 236 239 241 241 240 236 230 228 225 223 223 220 217 216 217 220 218 215 215 213 210 207 205
258 246 238 229 214 211 209 205 206 204 200 199 203 207 208 207 205 203 203 206 209 212 212 211 213 217 220 225 227 230 233 234 234 234 232 230 227 223 219 222 223 222 221 222 223 223 220 219 217 214 211 208
262 242 230 226 220 216 212 210 208 203 201 204 208 211 214 214 213 212 211 211 212 213 213 212 214 217 219 223 224 226 228 228 228 229 230 229 227 223 219 218 220 220 220 220 219 219 218 216 215 214 214 211
273 249 231 229 227 221 217 214 209 205 206 212 217 218 221 227 228 225 222 217 216 216 217 216 219 222 223 223 223 224 225 223 224 226 227 226 225 223 222 220 219 219 218 218 216 215 215 214 213 214 215 214
285 265 242 238 231 223 221 217 211 211 212 215 222 225 229 236 237 234 229 223 220 220 220 222 226 229 229 227 224 223 222 220 220 223 223 222 223 223 223 223 222 221 220 218 216 215 216 214 214 213 215 216
292 283 253 248 244 231 223 217 214 215 216 215 219 227 232 236 237 233 230 224 220 221 222 224 229 232 231 228 225 222 220 218 219 220 218 219 221 220 221 222 222 223 222 220 217 216 217 216 215 214 214 216
293 297 273 256 254 243 227 217 216 218 219 220 220 225 230 232 233 229 228 224 219 220 224 227 231 235 234 229 226 223 220 217 217 218 217 218 219 219 219 220 220 221 220 219 217 217 217 217 216 215 215 216
287 295 294 279 259 245 233 225 223 222 225 228 227 226 226 228 229 227 228 225 220 220 223 227 232 237 234 228 227 224 222 218 218 220 221 221 220 220 219 219 219 219 219 218 216 216 217 217 216 215 215 216
283 289 292 293 281 256 240 232 228 228 233 234 232 228 225 226 227 227 229 228 223 221 223 227 231 234 232 228 227 225 224 221 220 222 224 225 225 224 222 220 219 219 219 218 217 217 217 217 216 215 215 216
270 280 285 285 287 277 255 239 231 234 239 235 232 230 226 227 227 226 228 228 225 222 223 227 231 233 231 228 228 226 225 223 223 223 225 227 227 228 226 223 222 221 220 219 218 219 219 219 218 217 215 215
245 257 272 279 277 272 270 254 240 239 239 234 230 229 227 228 229 228 228 228 226 222 223 227 231 233 231 230 229 227 226 226 225 225 225 226 225 227 227 225 224 223 221 219 218 219 220 220 220 220 218 216
236 235 245 257 265 263 262 260 251 246 242 236 231 229 229 229 230 231 231 230 226 224 225 227 231 233 232 230 230 229 228 228 227 226 226 226 225 225 226 225 225 225 224 221 218 220 221 221 222 222 220 219
242 228 231 235 247 253 254 256 257 253 249 247 244 241 239 235 231 232 231 230 227 226 227 228 229 232 232 230 231 230 228 226 225 226 226 226 226 226 227 227 227 226 224 223 220 219 221 221 222 224 222 221
348 239 224 233 240 245 255 256 255 254 253 258 262 258 252 247 243 238 235 232 230 229 230 230 229 231 232 231 231 231 230 228 226 226 226 227 227 226 226 225 225 224 221 219 218 217 221 223 222 223 224 223
346 352 354 340 322 318 299 268 255 255 253 259 274 274 266 261 256 249 243 238 233 232 232 233 233 232 233 234 233 233 233 232 230 228 228 229 228 227 227 224 220 219 216 213 212 213 215 219 222 222 223 224
337 341 345 344 339 337 333 307 277 267 261 262 270 274 273 271 265 255 247 242 236 234 235 236 236 234 236 237 235 234 235 234 232 229 227 227 226 224 226 227 223 218 215 214 215 214 210 210 216 222 224 225
324 325 328 329 330 331 332 328 316 298 277 273 273 272 273 274 272 260 250 243 238 236 237 238 238 238 239 239 238 236 235 234 232 229 227 225 225 223 222 223 224 224 224 221 217 213 210 212 215 219 224 225
339 322 310 305 307 310 313 315 313 307 290 287 284 275 272 272 272 265 254 249 246 245 244 242 241 241 242 243 242 238 236 235 233 231 229 227 225 224 221 220 221 224 227 226 221 212 208 212 215 219 225 227
1 347 327 306 292 282 278 279 292 302 300 302 301 283 274 270 270 268 260 255 253 252 251 248 246 246 246 245 243 241 238 237 236 234 232 230 228 226 225 223 223 222 223 227 228 223 215 209 214 225 230 230
2 360 357 350 337 313 299 299 308 318 322 322 322 312 293 273 267 270 269 264 259 254 251 249 248 249 249 247 245 244 243 240 237 237 236 233 232 231 229 227 226 225 224 224 227 228 227 227 233 237 229 222
1 360 0 1 3 358 342 329 324 324 321 318 318 319 310 289 272 268 273 275 272 265 257 252 249 248 249 249 247 245 245 243 240 239 241 238 234 234 233 230 229 229 227 225 224 225 227 230 237 242 233 224
Height
1509 1510 1510 1510 1512 1513 1515 1518 1519 1519 1521 1523 1525 1526 1527 1528 1530 1531 1532 1533 1533 1533 1533 1533 1534 1535 1536 1538 1539 1539 1541 1543 1543 1543 1543 1543 1543 1544 1545 1546 1547 1550 1552 1552 1553 1554 1555 1556 1556 1556 1556 1557
1508 1508 1508 1508 1511 1512 1513 1516 1518 1519 1519 1521 1523 1525 1526 1528 1529 1531 1532 1532 1532 1532 1533 1533 1534 1535 1536 1537 1538 1539 1540 1541 1541 1541 1541 1541 1542 1543 1545 1546 1548 1550 1551 1552 1553 1554 1555 1556 1556 1556 1556 1557
1508 1507 1508 1509 1510 1511 1513 1515 1516 1518 1518 1519 1521 1523 1525 1526 1528 1530 1530 1531 1531 1532 1532 1533 1534 1535 1536 1536 1538 1539 1539 1540 1540 1541 1541 1540 1541 1543 1545 1546 1548 1549 1551 1552 1553 1554 1555 1556 1556 1556 1556 1557
1511 1510 1509 1510 1510 1510 1512 1514 1515 1516 1517 1517 1519 1521 1523 1525 1527 1528 1529 1530 1530 1531 1532 1532 1533 1534 1535 1536 1537 1538 1539 1540 1540 1540 1540 1541 1541 1543 1546 1547 1548 1549 1550 1552 1553 1554 1555 1556 1556 1556 1556 1557
1511 1511 1510 1510 1510 1510 1510 1512 1514 1515 1516 1516 1517 1520 1521 1523 1525 1526 1527 1528 1529 1530 1531 1531 1532 1533 1534 1535 1536 1537 1538 1538 1539 1540 1540 1541 1542 1543 1545 1546 1547 1549 1550 1551 1553 1554 1555 1556 1556 1556 1556 1557
1509 1509 1509 1509 1509 1509 1511 1512 1513 1514 1514 1515 1517 1518 1520 1522 1523 1525 1526 1526 1528 1528 1529 1530 1531 1532 1533 1534 1535 1536 1536 1537 1538 1539 1540 1541 1542 1543 1545 1546 1547 1548 1549 1551 1553 1554 1555 1556 1556 1556 1556 1557
1508 1508 1507 1507 1508 1509 1510 1511 1511 1511 1513 1514 1515 1516 1518 1520 1522 1524 1525 1526 1527 1527 1528 1529 1530 1530 1531 1533 1533 1534 1535 1536 1537 1538 1539 1540 1542 1543 1544 1545 1546 1548 1549 1550 1552 1554 1554 1555 1556 1556 1556 1557
1506 1507 1507 1506 1507 1508 1508 1508 1510 1510 1512 1513 1513 1514 1516 1518 1520 1522 1524 1525 1526 1526 1527 1527 1528 1528 1530 1531 1532 1532 1533 1534 1536 1537 1539 1539 1541 1542 1543 1545 1546 1547 1548 1549 1551 1553 1553 1554 1555 1555 1556 1557
1504 1506 1506 1506 1505 1505 1505 1506 1508 1509 1511 1512 1513 1514 1515 1517 1519 1520 1522 1523 1523 1524 1525 1525 1526 1526 1528 1530 1531 1531 1531 1533 1534 1535 1537 1538 1539 1541 1542 1543 1544 1546 1547 1548 1550 1551 1552 1553 1554 1554 1555 1556
1504 1504 1504 1504 1503 1502 1503 1505 1507 1509 1510 1511 1512 1513 1514 1516 1517 1519 1520 1521 1521 1522 1523 1523 1524 1524 1525 1527 1529 1529 1530 1531 1532 1534 1535 1536 1537 1539 1540 1541 1543 1544 1545 1547 1548 1550 1551 1552 1552 1553 1554 1555
1502 1502 1502 1501 1501 1502 1503 1504 1506 1508 1509 1509 1511 1512 1514 1515 1516 1518 1518 1519 1520 1520 1521 1521 1522 1523 1523 1525 1526 1527 1528 1529 1531 1532 1533 1534 1535 1537 1539 1540 1541 1542 1544 1545 1547 1548 1549 1550 1551 1552 1553 1554
1501 1501 1500 1499 1500 1500 1501 1502 1503 1506 1507 1508 1510 1511 1513 1514 1516 1516 1517 1518 1518 1519 1519 1520 1520 1521 1522 1523 1524 1525 1526 1527 1529 1530 1531 1532 1534 1535 1537 1538 1539 1540 1542 1543 1545 1546 1547 1548 1550 1551 1552 1553
1500 1500 1499 1498 1497 1497 1499 1500 1501 1503 1505 1507 1509 1510 1512 1513 1514 1515 1515 1516 1517 1518 1518 1518 1519 1519 1520 1521 1521 1522 1523 1524 1526 1528 1529 1531 1532 1534 1535 1536 1537 1538 1540 1541 1542 1543 1545 1546 1548 1550 1551 1552
1499 1499 1499 1498 1496 1495 1496 1498 1499 1501 1503 1505 1507 1508 1510 1511 1512 1513 1514 1514 1515 1516 1516 1517 1517 1518 1519 1519 1519 1520 1520 1522 1523 1525 1527 1529 1531 1532 1533 1535 1536 1537 1538 1539 1540 1541 1543 1544 1546 1548 1549 1550
1496 1497 1497 1497 1495 1494 1494 1495 1498 1499 1500 1500 1502 1504 1506 1507 1509 1510 1511 1512 1513 1514 1515 1516 1516 1517 1517 1518 1518 1518 1519 1520 1521 1522 1524 1526 1528 1530 1532 1533 1534 1535 1536 1537 1538 1539 1541 1542 1545 1546 1547 1548
1494 1494 1495 1496 1495 1494 1493 1493 1495 1497 1497 1498 1499 1501 1502 1504 1506 1507 1508 1509 1511 1512 1513 1514 1515 1515 1516 1516 1517 1517 1517 1518 1519 1520 1522 1523 1525 1527 1529 1530 1532 1533 1534 1535 1536 1537 1539 1541 1543 1545 1546 1547
1492 1492 1493 1494 1494 1494 1493 1492 1493 1494 1496 1497 1498 1499 1500 1501 1503 1504 1505 1506 1508 1510 1511 1512 1513 1514 1514 1515 1516 1516 1516 1517 1517 1518 1519 1520 1521 1523 1525 1527 1529 1530 1531 1533 1534 1536 1537 1539 1541 1543 1544 1545
1490 1490 1491 1492 1493 1493 1492 1492 1492 1493 1495 1497 1497 1498 1498 1499 1500 1501 1503 1504 1506 1507 1508 1509 1511 1511 1512 1513 1514 1515 1515 1515 1516 1516 1516 1517 1518 1520 1521 1523 1525 1527 1529 1530 1532 1533 1535 1536 1538 1540 1542 1544
1489 1488 1489 1490 1491 1492 1492 1491 1491 1492 1493 1494 1495 1496 1497 1498 1498 1499 1500 1502 1503 1505 1506 1507 1508 1509 1510 1511 1512 1513 1513 1514 1514 1514 1515 1515 1516 1517 1519 1520 1522 1524 1526 1528 1530 1531 1532 1534 1536 1538 1540 1541
1486 1487 1487 1488 1488 1489 1490 1491 1491 1490 1491 1491 1491 1492 1494 1496 1496 1497 1498 1499 1500 1502 1503 1504 1505 1507 1508 1509 1510 1511 1511 1511 1512 1512 1513 1513 1514 1515 1516 1518 1519 1522 1524 1526 1528 1529 1530 1532 1533 1535 1537 1539
1483 1485 1486 1487 1487 1487 1488 1489 1489 1489 1489 1490 1490 1490 1492 1492 1493 1495 1496 1496 1496 1498 1500 1502 1503 1504 1505 1506 1507 1508 1508 1509 1510 1510 1511 1511 1512 1512 1514 1515 1517 1519 1521 1523 1526 1527 1529 1530 1532 1533 1535 1537
1481 1482 1484 1485 1485 1486 1486 1487 1488 1488 1488 1489 1489 1490 1491 1491 1491 1492 1493 1494 1494 1496 1498 1500 1501 1502 1503 1503 1504 1505 1505 1506 1507 1508 1508 1509 1509 1510 1511 1513 1514 1516 1519 1521 1524 1526 1527 1529 1530 1531 1533 1535
1480 1480 1481 1482 1483 1484 1485 1485 1486 1487 1487 1489 1490 1490 1490 1491 1491 1491 1492 1493 1493 1494 1496 1497 1498 1499 1500 1501 1501 1502 1502 1503 1504 1505 1506 1507 1508 1509 1510 1511 1513 1514 1516 1519 1521 1523 1525 1527 1528 1529 1531 1532
1480 1479 1480 1480 1481 1482 1483 1484 1485 1485 1486 1488 1489 1489 1490 1490 1490 1490 1490 1492 1493 1492 1493 1494 1495 1496 1498 1499 1500 1499 1499 1499 1500 1502 1503 1504 1506 1507 1508 1510 1511 1512 1514 1516 1519 1521 1523 1525 1526 1527 1528 1529
1481 1480 1480 1480 1480 1481 1481 1482 1483 1484 1485 1486 1486 1487 1488 1488 1489 1489 1488 1489 1490 1491 1491 1492 1493 1494 1495 1498 1498 1497 1497 1498 1499 1500 1501 1502 1504 1505 1505 1507 1508 1509 1511 1513 1515 1517 1519 1521 1522 1523 1524 1525
1482 1482 1481 1481 1481 1481 1481 1481 1481 1482 1483 1484 1484 1485 1485 1486 1486 1486 1486 1486 1487 1488 1489 1490 1491 1491 1492 1494 1494 1495 1496 1496 1497 1497 1498 1499 1500 1502 1503 1504 1505 1506 1507 1509 1510 1512 1515 1517 1518 1520 1521 1522
1483 1483 1482 1482 1482 1482 1481 1481 1480 1480 1480 1481 1482 1482 1483 1484 1484 1484 1484 1484 1485 1486 1486 1487 1488 1488 1489 1490 1491 1492 1494 1494 1494 1494 1494 1495 1496 1498 1499 1501 1502 1502 1503 1505 1507 1509 1511 1512 1515 1516 1517 1517
1484 1484 1483 1483 1482 1482 1481 1481 1480 1479 1478 1478 1478 1479 1480 1481 1482 1482 1482 1482 1484 1484 1484 1484 1485 1486 1487 1487 1488 1489 1490 1491 1492 1492 1492 1493 1494 1494 1495 1496 1497 1499 1500 1502 1503 1505 1507 1510 1512 1511 1511 1513
1484 1483 1482 1481 1480 1480 1480 1479 1479 1478 1477 1476 1476 1476 1477 1479 1480 1480 1481 1481 1481 1481 1481 1481 1482 1483 1483 1484 1485 1486 1486 1487 1489 1490 1492 1492 1492 1491 1491 1492 1493 1495 1496 1498 1499 1500 1502 1505 1507 1505 1507 1511
1484 1483 1481 1479 1478 1478 1478 1477 1477 1477 1477 1476 1475 1475 1475 1475 1476 1478 1479 1479 1479 1478 1478 1478 1479 1479 1479 1480 1481 1482 1483 1483 1484 1486 1488 1489 1490 1490 1490 1491 1491 1491 1492 1494 1496 1497 1497 1499 1500 1500 1504 1507
1485 1484 1482 1481 1480 1479 1478 1478 1477 1477 1477 1476 1475 1475 1474 1474 1474 1474 1475 1476 1477 1477 1476 1476 1476 1476 1476 1476 1477 1478 1479 1479 1480 1481 1483 1485 1487 1489 1490 1490 1488 1488 1489 1490 1491 1492 1494 1496 1496 1498 1500 1501